Location: Avellino
(40.9000°N, 14.7830°E)
Time: 08:53:50
(UTC+01:00)

ISS - Visible Passes

Search period start: 22 January 2019 00:00
Search period end: 01 February 2019 00:00
Orbit: 404 x 410 km, 51.6° (Epoch: 23 January)

Date Brightness Start Highest point End Pass type
(mag) Time Alt. Az. Time Alt. Az. Time Alt. Az.
22 Jan -2.0 17:53:09 10° S 17:55:31 18° SE 17:57:16 13° E visible
22 Jan -1.3 19:28:35 10° WSW 19:30:01 23° W 19:30:01 23° W visible
23 Jan -3.9 18:37:09 10° SW 18:40:26 90° NNW 18:41:04 56° NE visible
24 Jan -3.3 17:45:58 10° SSW 17:49:08 46° SE 17:52:02 12° ENE visible
24 Jan -1.5 19:22:57 10° W 19:24:46 22° NW 19:24:46 22° NW visible
25 Jan -2.8 18:31:10 10° W 18:34:18 39° NNW 18:35:40 26° NNE visible
26 Jan -3.6 17:39:35 10° WSW 17:42:51 68° NW 17:46:09 10° NE visible
26 Jan -1.3 19:17:34 10° WNW 19:19:13 16° NNW 19:19:13 16° NNW visible
27 Jan -1.9 18:25:35 10° WNW 18:28:16 22° NNW 18:29:59 15° NNE visible
28 Jan -1.1 19:12:13 10° NW 19:13:25 13° NNW 19:13:25 13° NNW visible
29 Jan -1.5 18:20:11 10° NW 18:22:18 16° NNW 18:24:07 11° NNE visible
30 Jan -1.2 19:06:31 10° NNW 19:07:29 12° N 19:07:29 12° N visible
31 Jan -1.4 18:14:42 10° NW 18:16:22 13° N 18:18:03 10° NNE visible
